EW9248 Weather Reports


Display with metric or nautical units.
time (UTC)temp
F
wind
direction
speed
MPH
gust
MPH
rain 1hr
in
rain 24hr
in
rain mn
in
humidity
%
barometer
mb
20260902023316 71 0.0 0.0 0.00 1.37 1.37 93 1017.1
20260902022317 71 0.0 0.0 0.00 1.37 1.37 93 1017.0
20260902021337 71 0.0 0.0 0.00 1.37 1.37 92 1017.1
20260902020337 72 0.0 0.0 0.00 1.37 1.37 92 1017.1
20260902015316 72 0.0 0.0 0.00 1.37 1.37 92 1017.0
20260902014336 72 0.0 0.0 0.00 1.37 1.37 92 1017.0
20260902013316 72 0.0 0.0 0.00 1.37 1.37 92 1016.9
20260902012416 72 0.0 0.0 0.00 1.37 1.37 92 1016.7
20260902011336 72 0.0 0.0 0.00 1.37 1.37 92 1016.6
20260902010357 73 0.0 0.0 0.00 1.37 1.37 92 1016.6
20260902005316 73 0.0 0.0 0.00 1.37 1.37 92 1016.5
20260902004336 73 0.0 0.0 0.00 1.38 1.37 92 1016.3
20260902003337 73 0.0 0.0 0.00 1.38 1.37 92 1016.1
20260902002336 74 0.0 0.0 0.00 1.39 1.37 92 1016.0
20260902001316 74 0.0 0.0 0.00 1.40 1.37 91 1016.0
20260902000322 74 0.0 0.0 0.00 1.40 1.37 91 1015.8
20260901235356 74 0.0 0.0 0.00 1.40 1.37 91 1015.7
20260901234316 75 0.0 0.0 0.00 1.40 1.37 91 1015.7
20260901233317 75 0.0 0.0 0.00 1.40 1.37 91 1015.8
20260901232336 75 0.0 0.0 0.00 1.40 1.37 90 1015.8
20260901231436 76 0.0 0.0 0.00 1.40 1.37 90 1015.7
20260901230416 76 0.0 0.0 0.00 1.40 1.37 89 1015.4
20260901225357 77 0.0 0.0 0.00 1.40 1.37 89 1015.5
20260901224316 77 0.0 0.0 0.00 1.40 1.37 89 1015.6
20260901223316 78 0.0 0.0 0.00 1.41 1.37 88 1015.4
20260901222317 78 0.0 0.0 0.00 1.41 1.37 88 1015.4
20260901221316 78 0.0 0.0 0.00 1.41 1.37 86 1015.4
20260901220316 79 0.0 0.0 0.00 1.43 1.37 82 1015.6
20260901215316 80 0.0 0.0 0.00 1.43 1.37 81 1015.6
20260901214316 82 0.0 0.0 0.00 1.44 1.37 78 1015.6
20260901213358 81 0.0 0.0 0.00 1.45 1.37 80 1015.6
20260901212316 82 0.0 1.0 0.00 1.45 1.37 79 1015.5
20260901211316 82 0.0 0.0 0.00 1.45 1.37 80 1015.3
20260901210317 81 0.0 0.0 0.00 1.45 1.37 81 1015.3
20260901205316 81 0.0 1.0 0.00 1.46 1.37 81 1015.3
20260901204317 79 0.0 0.0 0.00 1.46 1.37 84 1015.3
20260901203336 80 0.0 2.0 0.00 1.46 1.37 81 1015.5
20260901202316 81 0.0 1.0 0.00 1.46 1.37 79 1015.6
20260901201336 83 0.0 1.0 0.00 1.47 1.37 79 1015.6
20260901200337 81 0.0 1.0 0.00 1.48 1.37 82 1015.7
20260901195316 80 0.0 0.0 0.00 1.48 1.37 82 1015.7
20260901194316 81 0.0 0.0 0.00 1.48 1.37 79 1015.8
20260901193316 81 0.0 1.0 0.00 1.51 1.37 81 1015.8
20260901192416 81 0.0 0.0 0.00 1.53 1.37 80 1015.8
20260901191337 81 0.0 1.0 0.00 1.54 1.37 80 1015.8
20260901190316 81 0.0 1.0 0.00 1.55 1.37 79 1015.8
20260901185336 82 0.0 1.0 0.00 1.55 1.37 80 1015.8
20260901184357 81 270 1.0 3.0 0.00 1.55 1.37 81 1015.7
20260901183336 80 247 2.0 6.0 0.00 1.55 1.37 80 1015.6
20260901182316 80 247 1.0 3.0 0.00 1.56 1.37 82 1015.6
20260901181357 79 0.0 1.0 0.00 1.56 1.37 87 1015.5
20260901180316 78 292 2.0 3.0 0.00 1.58 1.37 90 1015.5
20260901175316 77 0.0 1.0 0.00 1.58 1.37 92 1015.5
20260901173316 77 247 1.0 2.0 0.00 1.59 1.37 93 1015.3
20260901172316 76 0.0 2.0 0.00 1.60 1.37 94 1015.3
20260901171316 75 0.0 0.0 0.00 1.60 1.37 94 1015.5
20260901170316 74 0.0 0.0 0.00 1.62 1.37 94 1015.5
20260901165336 73 0.0 0.0 0.00 1.62 1.37 94 1015.6
20260901164336 73 0.0 0.0 0.00 1.63 1.37 94 1015.7
20260901163356 73 0.0 0.0 0.00 1.65 1.37 94 1015.6
20260901162416 73 0.0 0.0 0.00 1.67 1.37 94 1015.6
20260901161335 73 0.0 0.0 0.00 1.68 1.37 94 1015.7
20260901160336 73 0.0 0.0 0.00 1.71 1.37 94 1015.7
20260901155315 72 0.0 0.0 0.00 1.76 1.37 94 1015.7
20260901154315 72 0.0 0.0 0.00 1.85 1.37 94 1015.8
20260901153416 72 0.0 0.0 0.00 1.85 1.37 94 1015.8
20260901152336 72 0.0 0.0 0.00 1.85 1.37 94 1015.7
20260901151316 72 0.0 0.0 0.00 1.85 1.37 94 1015.8
20260901150335 72 0.0 0.0 0.00 1.85 1.37 94 1015.7
20260901145335 71 0.0 0.0 0.00 1.85 1.37 94 1015.7
20260901144356 71 0.0 0.0 0.16 1.85 1.37 94 1015.7
20260901143315 70 0.0 0.0 0.29 1.85 1.37 94 1015.7
20260901142315 70 0.0 0.0 0.29 1.85 1.37 94 1015.7
20260901141315 70 0.0 1.0 0.29 1.85 1.37 94 1015.7
20260901140336 70 0.0 0.0 0.29 1.85 1.37 94 1015.7
20260901135335 69 0.0 0.0 0.29 1.85 1.37 94 1015.9
20260901134316 69 0.0 0.0 0.16 1.69 1.21 94 1016.2
20260901133315 69 0.0 0.0 0.13 1.56 1.08 94 1015.9
20260901132335 69 0.0 0.0 0.16 1.56 1.08 94 1016.1
20260901131316 69 0.0 0.0 0.34 1.56 1.08 94 1016.0
20260901130315 68 0.0 1.0 0.50 1.56 1.08 94 1016.1
20260901125315 68 0.0 0.0 0.62 1.56 1.08 94 1016.0
20260901124335 68 202 1.0 3.0 0.69 1.53 1.05 94 1016.3
20260901123315 68 0.0 0.0 0.78 1.42 0.94 94 1016.5
20260901122356 67 0.0 0.0 0.83 1.40 0.92 94 1016.3
20260901121315 67 0.0 0.0 0.66 1.22 0.74 94 1016.8
20260901120315 67 0.0 0.0 0.50 1.06 0.57 94 1016.9
20260901115316 67 0.0 1.0 0.39 0.94 0.46 94 1016.2
20260901114335 67 0.0 0.0 0.29 0.84 0.36 94 1016.2
20260901113336 66 0.0 1.0 0.09 0.64 0.17 94 1016.2
20260901112315 66 0.0 0.0 0.02 0.57 0.09 94 1016.6
20260901111315 66 0.0 0.0 0.02 0.56 0.08 94 1016.0
20260901110355 66 0.0 0.0 0.02 0.56 0.08 94 1015.9
20260901105315 66 0.0 0.0 0.01 0.55 0.07 94 1015.8
20260901104436 66 0.0 0.0 0.01 0.55 0.07 94 1015.5
20260901103315 66 0.0 0.0 0.01 0.55 0.07 94 1015.6
20260901102315 66 0.0 0.0 0.01 0.55 0.07 94 1015.8
20260901101356 66 0.0 0.0 0.00 0.54 0.06 94 1016.0
20260901100335 66 0.0 0.0 0.00 0.54 0.06 94 1015.8
20260901095315 66 0.0 0.0 0.00 0.54 0.06 94 1015.8
20260901094336 66 0.0 0.0 0.00 0.54 0.06 94 1015.9
20260901093335 66 0.0 0.0 0.00 0.54 0.06 94 1016.0
20260901092336 66 0.0 0.0 0.00 0.54 0.06 94 1015.8
20260901091335 65 0.0 0.0 0.00 0.54 0.06 94 1015.9
20260901090316 65 0.0 0.0 0.00 0.54 0.06 94 1016.1
20260901085315 65 0.0 0.0 0.00 0.54 0.06 94 1015.9
20260901084315 66 0.0 0.0 0.01 0.54 0.06 93 1016.5
20260901083335 66 0.0 0.0 0.03 0.54 0.06 93 1016.8
20260901082315 66 0.0 0.0 0.06 0.54 0.06 93 1016.7
20260901081356 66 0.0 0.0 0.06 0.54 0.06 93 1016.8
20260901080335 66 0.0 0.0 0.06 0.54 0.06 94 1017.0
20260901075315 66 0.0 0.0 0.06 0.54 0.06 93 1017.0
20260901074336 66 0.0 0.0 0.05 0.53 0.05 93 1017.1
20260901073315 66 0.0 1.0 0.03 0.51 0.03 93 1017.1
20260901072335 65 0.0 0.0 0.00 0.48 0.00 93 1016.9
20260901071335 65 0.0 0.0 0.00 0.48 0.00 93 1017.0
20260901070336 65 0.0 0.0 0.00 0.48 0.00 93 1017.1
20260901064335 65 0.0 0.0 0.00 0.48 0.00 93 1017.2
20260901063356 65 0.0 0.0 0.00 0.48 0.00 93 1017.1
20260901062317 65 0.0 0.0 0.00 0.48 0.00 93 1017.1
20260901061417 65 0.0 0.0 0.00 0.48 0.00 93 1017.2
20260901060337 65 0.0 0.0 0.00 0.48 0.00 93 1017.3
20260901055337 65 0.0 0.0 0.00 0.48 0.00 93 1017.4
20260901054317 65 0.0 0.0 0.00 0.48 0.00 93 1017.5
20260901053317 65 0.0 0.0 0.00 0.48 0.00 93 1017.6
20260901052317 65 0.0 0.0 0.00 0.48 0.00 93 1017.6
20260901051437 65 0.0 0.0 0.00 0.48 0.00 93 1017.7
20260901050317 65 0.0 0.0 0.00 0.48 0.00 93 1017.6
20260901045317 66 0.0 0.0 0.00 0.48 0.00 93 1017.6
20260901044416 66 0.0 0.0 0.00 0.48 0.00 93 1017.8
20260901043316 66 0.0 0.0 0.00 0.48 0.00 93 1017.7
20260901042337 66 0.0 0.0 0.00 0.48 0.00 93 1017.8
20260901040433 66 0.0 0.0 0.00 0.48 0.00 93 1017.8
20260901040116 66 0.0 0.0 0.00 0.48 0.00 93 1017.8
20260901035115 66 0.0 0.0 0.00 0.48 0.48 93 1017.9
20260901034117 66 0.0 0.0 0.00 0.48 0.48 93 1017.7
20260901033117 66 0.0 0.0 0.00 0.48 0.48 93 1017.9
20260901032137 67 0.0 0.0 0.00 0.48 0.48 93 1018.0
20260901031118 67 0.0 0.0 0.00 0.48 0.48 93 1018.0
20260901030137 67 0.0 0.0 0.00 0.48 0.48 93 1018.1
20260901025116 67 0.0 0.0 0.00 0.48 0.48 93 1017.9
20260901024157 67 0.0 0.0 0.00 0.48 0.48 93 1018.0